Time,TemperatureF,DewpointF,PressureIn,WindDirection,WindDirectionDegrees,WindSpeedMPH,WindSpeedGustMPH,Humidity,HourlyPrecipIn,Conditions,Clouds,dailyrainin,SoftwareType,DateUTC
2013-02-05 00:01:00,28.0,26.0,29.91,South,178,0.0,5.0,91,0.00,,,0.00,,2013-02-05 06:01:00,
2013-02-05 00:11:00,28.0,26.0,29.91,South,178,0.0,5.0,91,0.00,,,0.00,,2013-02-05 06:11:00,
2013-02-05 00:21:00,28.0,25.0,29.91,South,178,0.0,1.0,90,0.00,,,0.00,,2013-02-05 06:21:00,
2013-02-05 00:32:00,27.0,24.0,29.90,South,178,0.0,1.0,90,0.00,,,0.00,,2013-02-05 06:32:00,
2013-02-05 00:42:00,27.0,24.0,29.90,South,178,0.0,1.0,90,0.00,,,0.00,,2013-02-05 06:42:00,
2013-02-05 00:51:00,27.0,24.0,29.91,South,178,0.0,0.0,90,0.00,,,0.00,,2013-02-05 06:51:00,
2013-02-05 01:01:00,27.0,25.0,29.90,South,178,0.0,0.0,91,0.00,,,0.00,,2013-02-05 07:01:00,
2013-02-05 01:11:00,27.0,25.0,29.90,South,178,0.0,0.0,91,0.00,,,0.00,,2013-02-05 07:11:00,
2013-02-05 01:22:00,27.0,25.0,29.91,South,178,0.0,1.0,92,0.00,,,0.00,,2013-02-05 07:22:00,
2013-02-05 01:32:00,27.0,25.0,29.90,WSW,242,0.0,2.0,91,0.00,,,0.00,,2013-02-05 07:32:00,
2013-02-05 01:42:00,27.0,25.0,29.90,WSW,242,0.0,2.0,91,0.00,,,0.00,,2013-02-05 07:42:00,
2013-02-05 01:52:00,27.0,25.0,29.90,WSW,247,0.0,2.0,91,0.00,,,0.00,,2013-02-05 07:52:00,
2013-02-05 02:01:00,26.0,23.0,29.90,WSW,247,0.0,0.0,89,0.00,,,0.00,,2013-02-05 08:01:00,
2013-02-05 02:11:00,26.0,23.0,29.90,WSW,247,0.0,0.0,89,0.00,,,0.00,,2013-02-05 08:11:00,
2013-02-05 02:21:00,26.0,24.0,29.90,WSW,247,0.0,1.0,91,0.00,,,0.00,,2013-02-05 08:21:00,
2013-02-05 02:31:00,26.0,24.0,29.90,WSW,250,0.0,2.0,91,0.00,,,0.00,,2013-02-05 08:31:00,
2013-02-05 02:41:00,26.0,24.0,29.90,WSW,250,0.0,2.0,91,0.00,,,0.00,,2013-02-05 08:41:00,
2013-02-05 02:52:00,26.0,24.0,29.90,WSW,253,1.0,4.0,92,0.00,,,0.00,,2013-02-05 08:52:00,
2013-02-05 03:02:00,26.0,24.0,29.90,West,264,1.0,4.0,91,0.00,,,0.00,,2013-02-05 09:02:00,
2013-02-05 03:11:00,26.0,24.0,29.90,West,259,2.0,3.0,91,0.00,,,0.00,,2013-02-05 09:11:00,
2013-02-05 03:21:00,26.0,24.0,29.90,West,259,2.0,3.0,91,0.00,,,0.00,,2013-02-05 09:21:00,
2013-02-05 03:32:00,26.0,24.0,29.90,West,266,2.0,3.0,91,0.00,,,0.00,,2013-02-05 09:32:00,
2013-02-05 03:42:00,26.0,24.0,29.90,West,266,2.0,3.0,91,0.00,,,0.00,,2013-02-05 09:42:00,
2013-02-05 03:51:00,27.0,25.0,29.91,West,264,3.0,4.0,91,0.00,,,0.00,,2013-02-05 09:51:00,
2013-02-05 04:02:00,27.0,24.0,29.91,WSW,248,0.0,5.0,90,0.00,,,0.00,,2013-02-05 10:02:00,
2013-02-05 04:11:00,26.0,24.0,29.92,NNE,17,1.0,4.0,91,0.00,,,0.00,,2013-02-05 10:11:00,
2013-02-05 04:21:00,26.0,24.0,29.92,NNE,17,1.0,4.0,91,0.00,,,0.00,,2013-02-05 10:21:00,
2013-02-05 04:32:00,26.0,24.0,29.92,West,263,5.0,8.0,92,0.00,,,0.00,,2013-02-05 10:32:00,
2013-02-05 04:42:00,26.0,24.0,29.92,West,263,5.0,8.0,92,0.00,,,0.00,,2013-02-05 10:42:00,
2013-02-05 04:52:00,26.0,24.0,29.92,West,263,5.0,8.0,92,0.00,,,0.00,,2013-02-05 10:52:00,
2013-02-05 05:01:00,26.0,24.0,29.92,WSW,252,2.0,4.0,91,0.00,,,0.00,,2013-02-05 11:01:00,
2013-02-05 05:11:00,26.0,24.0,29.92,WSW,252,2.0,4.0,91,0.00,,,0.00,,2013-02-05 11:11:00,
2013-02-05 05:22:00,26.0,24.0,29.93,WSW,252,0.0,2.0,91,0.00,,,0.00,,2013-02-05 11:22:00,
2013-02-05 05:32:00,25.0,23.0,29.92,WSW,253,3.0,5.0,92,0.00,,,0.00,,2013-02-05 11:32:00,
2013-02-05 05:42:00,25.0,23.0,29.92,WSW,253,3.0,5.0,92,0.00,,,0.00,,2013-02-05 11:42:00,
2013-02-05 05:52:00,27.0,25.0,29.92,WSW,246,3.0,7.0,93,0.00,,,0.00,,2013-02-05 11:52:00,
2013-02-05 06:01:00,29.0,27.0,29.91,SW,232,5.0,8.0,92,0.00,,,0.00,,2013-02-05 12:01:00,
2013-02-05 06:12:00,29.0,27.0,29.91,SW,232,5.0,8.0,92,0.00,,,0.00,,2013-02-05 12:12:00,
2013-02-05 06:22:00,30.0,27.0,29.92,WSW,251,5.0,8.0,90,0.00,,,0.00,,2013-02-05 12:22:00,
2013-02-05 06:32:00,30.0,27.0,29.93,West,264,3.0,6.0,90,0.00,,,0.00,,2013-02-05 12:32:00,
2013-02-05 06:42:00,30.0,27.0,29.93,West,264,3.0,6.0,90,0.00,,,0.00,,2013-02-05 12:42:00,
2013-02-05 06:52:00,29.0,26.0,29.93,West,260,4.0,5.0,89,0.00,,,0.00,,2013-02-05 12:52:00,
2013-02-05 07:01:00,29.0,26.0,29.93,WSW,258,2.0,6.0,90,0.00,,,0.00,,2013-02-05 13:01:00,
2013-02-05 07:12:00,29.0,26.0,29.93,WSW,258,2.0,6.0,90,0.00,,,0.00,,2013-02-05 13:12:00,
2013-02-05 07:22:00,28.0,25.0,29.94,West,259,3.0,5.0,90,0.00,,,0.00,,2013-02-05 13:22:00,
2013-02-05 07:32:00,28.0,26.0,29.94,West,259,2.0,5.0,91,0.00,,,0.00,,2013-02-05 13:32:00,
2013-02-05 07:42:00,28.0,26.0,29.94,West,259,2.0,5.0,91,0.00,,,0.00,,2013-02-05 13:42:00,
2013-02-05 07:51:00,28.0,26.0,29.94,West,261,3.0,5.0,91,0.00,,,0.00,,2013-02-05 13:51:00,
2013-02-05 08:01:00,28.0,26.0,29.95,WSW,257,5.0,7.0,91,0.00,,,0.00,,2013-02-05 14:01:00,
2013-02-05 08:12:00,28.0,26.0,29.95,WSW,257,5.0,7.0,91,0.00,,,0.00,,2013-02-05 14:12:00,
2013-02-05 08:21:00,29.0,26.0,29.96,West,265,2.0,5.0,90,0.00,,,0.00,,2013-02-05 14:21:00,
2013-02-05 08:32:00,30.0,27.0,29.96,West,263,3.0,6.0,89,0.00,,,0.00,,2013-02-05 14:32:00,
2013-02-05 08:42:00,30.0,27.0,29.96,West,263,3.0,6.0,89,0.00,,,0.00,,2013-02-05 14:42:00,
2013-02-05 08:52:00,31.0,28.0,29.98,West,259,3.0,6.0,89,0.00,,,0.00,,2013-02-05 14:52:00,
2013-02-05 09:02:00,33.0,30.0,29.99,WSW,253,1.0,4.0,88,0.00,,,0.00,,2013-02-05 15:02:00,
2013-02-05 09:11:00,33.0,30.0,29.99,WSW,253,1.0,4.0,88,0.00,,,0.00,,2013-02-05 15:11:00,
2013-02-05 09:21:00,34.0,31.0,29.99,WSW,250,2.0,5.0,87,0.00,,,0.00,,2013-02-05 15:21:00,
2013-02-05 09:32:00,36.0,32.0,30.00,WSW,243,2.0,5.0,85,0.00,,,0.00,,2013-02-05 15:32:00,
2013-02-05 09:42:00,36.0,32.0,30.00,WSW,243,2.0,5.0,85,0.00,,,0.00,,2013-02-05 15:42:00,
2013-02-05 09:52:00,38.0,32.0,30.01,WSW,249,4.0,6.0,80,0.00,,,0.00,,2013-02-05 15:52:00,
2013-02-05 10:01:00,40.0,33.0,30.01,SW,236,3.0,7.0,76,0.00,,,0.00,,2013-02-05 16:01:00,
2013-02-05 10:11:00,40.0,33.0,30.01,SW,236,3.0,7.0,76,0.00,,,0.00,,2013-02-05 16:11:00,
2013-02-05 10:22:00,41.0,32.0,30.02,East,79,3.0,8.0,71,0.00,,,0.00,,2013-02-05 16:22:00,
2013-02-05 10:32:00,42.0,33.0,30.02,SSW,211,1.0,6.0,70,0.00,,,0.00,,2013-02-05 16:32:00,
2013-02-05 10:42:00,42.0,33.0,30.02,SSW,211,1.0,6.0,70,0.00,,,0.00,,2013-02-05 16:42:00,
2013-02-05 10:51:00,43.0,33.0,30.03,WSW,258,4.0,8.0,68,0.00,,,0.00,,2013-02-05 16:51:00,
2013-02-05 11:01:00,44.0,34.0,30.03,WSW,244,4.0,8.0,67,0.00,,,0.00,,2013-02-05 17:01:00,
2013-02-05 11:11:00,44.0,34.0,30.03,WSW,244,4.0,8.0,67,0.00,,,0.00,,2013-02-05 17:11:00,
2013-02-05 11:21:00,44.0,34.0,30.03,WSW,244,4.0,8.0,67,0.00,,,0.00,,2013-02-05 17:21:00,
2013-02-05 11:32:00,47.0,34.0,30.04,South,173,3.0,8.0,60,0.00,,,0.00,,2013-02-05 17:32:00,
2013-02-05 11:42:00,47.0,34.0,30.04,South,173,3.0,8.0,60,0.00,,,0.00,,2013-02-05 17:42:00,
2013-02-05 11:52:00,49.0,35.0,30.04,WSW,249,2.0,8.0,58,0.00,,,0.00,,2013-02-05 17:52:00,
2013-02-05 12:02:00,50.0,35.0,30.04,NNE,26,1.0,6.0,56,0.00,,,0.00,,2013-02-05 18:02:00,
2013-02-05 12:11:00,50.0,35.0,30.04,NNE,26,1.0,6.0,56,0.00,,,0.00,,2013-02-05 18:11:00,
2013-02-05 12:22:00,52.0,35.0,30.04,NE,56,0.0,6.0,53,0.00,,,0.00,,2013-02-05 18:22:00,
2013-02-05 12:32:00,53.0,36.0,30.04,NNE,22,1.0,6.0,53,0.00,,,0.00,,2013-02-05 18:32:00,
2013-02-05 12:42:00,53.0,36.0,30.04,NNE,22,1.0,6.0,53,0.00,,,0.00,,2013-02-05 18:42:00,
2013-02-05 12:52:00,55.0,37.0,30.03,WSW,252,5.0,9.0,50,0.00,,,0.00,,2013-02-05 18:52:00,
2013-02-05 13:02:00,56.0,37.0,30.03,WSW,258,2.0,8.0,48,0.00,,,0.00,,2013-02-05 19:02:00,
2013-02-05 13:11:00,56.0,37.0,30.03,WSW,258,2.0,8.0,48,0.00,,,0.00,,2013-02-05 19:11:00,
2013-02-05 13:21:00,58.0,34.0,30.02,WSW,244,2.0,5.0,41,0.00,,,0.00,,2013-02-05 19:21:00,
2013-02-05 13:32:00,59.0,35.0,30.02,NNE,24,1.0,5.0,41,0.00,,,0.00,,2013-02-05 19:32:00,
2013-02-05 13:42:00,59.0,35.0,30.02,NNE,24,1.0,5.0,41,0.00,,,0.00,,2013-02-05 19:42:00,
2013-02-05 13:52:00,59.0,33.0,30.02,NE,35,3.0,8.0,37,0.00,,,0.00,,2013-02-05 19:52:00,
2013-02-05 14:01:00,59.0,34.0,30.01,NNE,15,3.0,6.0,39,0.00,,,0.00,,2013-02-05 20:01:00,
2013-02-05 14:11:00,59.0,34.0,30.01,NNE,15,3.0,6.0,39,0.00,,,0.00,,2013-02-05 20:11:00,
2013-02-05 14:21:00,59.0,34.0,30.01,NNE,15,3.0,6.0,39,0.00,,,0.00,,2013-02-05 20:21:00,
2013-02-05 14:32:00,60.0,33.0,30.01,NNE,17,1.0,5.0,36,0.00,,,0.00,,2013-02-05 20:32:00,
2013-02-05 14:42:00,60.0,33.0,30.01,NNE,17,1.0,5.0,36,0.00,,,0.00,,2013-02-05 20:42:00,
2013-02-05 14:52:00,60.0,34.0,30.01,North,5,1.0,6.0,38,0.00,,,0.00,,2013-02-05 20:52:00,
2013-02-05 15:02:00,60.0,34.0,30.01,NNE,12,2.0,5.0,38,0.00,,,0.00,,2013-02-05 21:02:00,
2013-02-05 15:11:00,60.0,34.0,30.01,NNE,12,2.0,5.0,38,0.00,,,0.00,,2013-02-05 21:11:00,
2013-02-05 15:22:00,60.0,34.0,30.01,NNE,12,2.0,5.0,38,0.00,,,0.00,,2013-02-05 21:22:00,
2013-02-05 15:32:00,61.0,35.0,30.00,NNE,30,1.0,6.0,37,0.00,,,0.00,,2013-02-05 21:32:00,
2013-02-05 15:42:00,61.0,35.0,30.00,NNE,30,1.0,6.0,37,0.00,,,0.00,,2013-02-05 21:42:00,
2013-02-05 15:52:00,62.0,35.0,29.99,NE,34,0.0,3.0,36,0.00,,,0.00,,2013-02-05 21:52:00,
2013-02-05 16:01:00,62.0,35.0,30.00,NE,51,1.0,4.0,37,0.00,,,0.00,,2013-02-05 22:01:00,
2013-02-05 16:11:00,62.0,35.0,30.00,NE,51,1.0,4.0,37,0.00,,,0.00,,2013-02-05 22:11:00,
2013-02-05 16:21:00,61.0,34.0,29.99,NNE,30,3.0,8.0,36,0.00,,,0.00,,2013-02-05 22:21:00,
2013-02-05 16:32:00,60.0,33.0,30.00,NNE,12,2.0,7.0,36,0.00,,,0.00,,2013-02-05 22:32:00,
2013-02-05 16:42:00,60.0,33.0,30.00,NNE,12,2.0,7.0,36,0.00,,,0.00,,2013-02-05 22:42:00,
2013-02-05 16:51:00,60.0,32.0,30.00,North,9,2.0,7.0,35,0.00,,,0.00,,2013-02-05 22:51:00,
2013-02-05 17:02:00,59.0,32.0,30.00,NNW,347,1.0,5.0,36,0.00,,,0.00,,2013-02-05 23:02:00,
2013-02-05 17:11:00,59.0,32.0,30.00,NNW,347,1.0,5.0,36,0.00,,,0.00,,2013-02-05 23:11:00,
2013-02-05 17:22:00,59.0,32.0,30.00,North,360,1.0,6.0,36,0.00,,,0.00,,2013-02-05 23:22:00,
2013-02-05 17:32:00,58.0,33.0,30.00,NNE,24,1.0,4.0,38,0.00,,,0.00,,2013-02-05 23:32:00,
2013-02-05 17:42:00,58.0,33.0,30.00,NNE,24,1.0,4.0,38,0.00,,,0.00,,2013-02-05 23:42:00,
2013-02-05 17:52:00,56.0,32.0,30.00,North,5,1.0,4.0,40,0.00,,,0.00,,2013-02-05 23:52:00,
2013-02-05 18:02:00,55.0,32.0,30.01,North,9,2.0,4.0,42,0.00,,,0.00,,2013-02-06 00:02:00,
2013-02-05 18:11:00,55.0,32.0,30.01,North,9,2.0,4.0,42,0.00,,,0.00,,2013-02-06 00:11:00,
2013-02-05 18:22:00,54.0,33.0,30.01,North,5,1.0,4.0,44,0.00,,,0.00,,2013-02-06 00:22:00,
2013-02-05 18:32:00,52.0,32.0,30.01,NNE,13,0.0,2.0,47,0.00,,,0.00,,2013-02-06 00:32:00,
2013-02-05 18:42:00,52.0,32.0,30.01,NNE,13,0.0,2.0,47,0.00,,,0.00,,2013-02-06 00:42:00,
2013-02-05 18:52:00,51.0,33.0,30.01,NNE,17,0.0,2.0,50,0.00,,,0.00,,2013-02-06 00:52:00,
2013-02-05 19:02:00,49.0,32.0,30.01,NNE,27,0.0,3.0,52,0.00,,,0.00,,2013-02-06 01:02:00,
2013-02-05 19:11:00,49.0,32.0,30.01,NNE,27,0.0,3.0,52,0.00,,,0.00,,2013-02-06 01:11:00,
2013-02-05 19:22:00,48.0,32.0,30.01,NE,42,0.0,3.0,54,0.00,,,0.00,,2013-02-06 01:22:00,
2013-02-05 19:32:00,48.0,32.0,30.02,NNE,32,0.0,4.0,54,0.00,,,0.00,,2013-02-06 01:32:00,
2013-02-05 19:42:00,48.0,32.0,30.02,NNE,32,0.0,4.0,54,0.00,,,0.00,,2013-02-06 01:42:00,
2013-02-05 19:52:00,46.0,32.0,30.03,NNE,32,0.0,2.0,58,0.00,,,0.00,,2013-02-06 01:52:00,
2013-02-05 20:01:00,46.0,32.0,30.03,North,355,3.0,6.0,59,0.00,,,0.00,,2013-02-06 02:01:00,
2013-02-05 20:11:00,46.0,32.0,30.03,North,355,3.0,6.0,59,0.00,,,0.00,,2013-02-06 02:11:00,
2013-02-05 20:22:00,44.0,31.0,30.04,ENE,57,1.0,3.0,60,0.00,,,0.00,,2013-02-06 02:22:00,
2013-02-05 20:32:00,43.0,31.0,30.04,NE,44,0.0,2.0,62,0.00,,,0.00,,2013-02-06 02:32:00,
2013-02-05 20:42:00,43.0,31.0,30.04,NE,44,0.0,2.0,62,0.00,,,0.00,,2013-02-06 02:42:00,
2013-02-05 20:52:00,42.0,31.0,30.04,NE,36,0.0,2.0,65,0.00,,,0.00,,2013-02-06 02:52:00,
2013-02-05 21:02:00,41.0,31.0,30.04,NNE,26,1.0,4.0,66,0.00,,,0.00,,2013-02-06 03:02:00,
2013-02-05 21:12:00,41.0,31.0,30.04,NNE,26,1.0,4.0,66,0.00,,,0.00,,2013-02-06 03:12:00,
2013-02-05 21:22:00,40.0,30.0,30.04,NE,34,1.0,3.0,67,0.00,,,0.00,,2013-02-06 03:22:00,
2013-02-05 21:32:00,39.0,30.0,30.03,NNE,32,1.0,4.0,69,0.00,,,0.00,,2013-02-06 03:32:00,
2013-02-05 21:42:00,39.0,30.0,30.03,NNE,32,1.0,4.0,69,0.00,,,0.00,,2013-02-06 03:42:00,
2013-02-05 21:52:00,39.0,30.0,30.04,NNE,27,0.0,4.0,70,0.00,,,0.00,,2013-02-06 03:52:00,
2013-02-05 22:02:00,38.0,30.0,30.05,NNE,31,0.0,3.0,72,0.00,,,0.00,,2013-02-06 04:02:00,
2013-02-05 22:11:00,38.0,30.0,30.05,NNE,31,0.0,3.0,72,0.00,,,0.00,,2013-02-06 04:11:00,
2013-02-05 22:21:00,38.0,29.0,30.05,NE,37,0.0,4.0,71,0.00,,,0.00,,2013-02-06 04:21:00,
2013-02-05 22:32:00,37.0,29.0,30.05,NE,47,2.0,4.0,73,0.00,,,0.00,,2013-02-06 04:32:00,
2013-02-05 22:42:00,37.0,29.0,30.05,NE,47,2.0,4.0,73,0.00,,,0.00,,2013-02-06 04:42:00,
2013-02-05 22:52:00,36.0,28.0,30.05,NNE,30,0.0,5.0,73,0.00,,,0.00,,2013-02-06 04:52:00,
2013-02-05 23:02:00,36.0,29.0,30.05,NE,45,1.0,4.0,75,0.00,,,0.00,,2013-02-06 05:02:00,
2013-02-05 23:12:00,36.0,29.0,30.05,NE,45,1.0,4.0,75,0.00,,,0.00,,2013-02-06 05:12:00,
2013-02-05 23:22:00,36.0,29.0,30.05,NNE,30,2.0,5.0,76,0.00,,,0.00,,2013-02-06 05:22:00,
2013-02-05 23:32:00,36.0,29.0,30.04,NNE,31,2.0,4.0,76,0.00,,,0.00,,2013-02-06 05:32:00,
2013-02-05 23:41:00,36.0,29.0,30.04,NNE,31,2.0,4.0,76,0.00,,,0.00,,2013-02-06 05:41:00,
2013-02-05 23:52:00,34.0,28.0,30.05,NE,34,1.0,4.0,77,0.00,,,0.00,,2013-02-06 05:52:00,